This is the latest recevied weather packets stored in our database for station/object OE2ATN. If no packets are shown the sender has not sent any weather packets the latest 10 day(s).
| Time | Temp. | Humidity | Pressure | Rain* | Wind** | Luminosity | Snow |
|---|---|---|---|---|---|---|---|
| 1778089235 | 17.78° C | 46% | 1012.3 hPa | 0 mm | - | - | - |
| 1778088935 | 17.78° C | 46% | 1012.2 hPa | 0 mm | - | - | - |
| 1778088634 | 17.78° C | 44% | 1012.1 hPa | 0 mm | - | - | - |
| 1778088334 | 18.33° C | 45% | 1012.1 hPa | 0 mm | - | - | - |
| 1778088034 | 18.33° C | 44% | 1011.9 hPa | 0 mm | - | - | - |
| 1778087734 | 18.33° C | 44% | 1011.9 hPa | 0 mm | - | - | - |
| 1778087434 | 18.33° C | 43% | 1011.7 hPa | 0 mm | - | - | - |
| 1778087134 | 18.89° C | 43% | 1011.6 hPa | 0 mm | - | - | - |
| 1778086834 | 18.89° C | 41% | 1011.5 hPa | 0 mm | - | - | - |
| 1778086533 | 18.89° C | 42% | 1011.5 hPa | 0 mm | - | - | - |
| 1778086233 | 19.44° C | 42% | 1011.3 hPa | 0 mm | - | - | - |
| 1778085933 | 19.44° C | 40% | 1011.3 hPa | 0 mm | - | - | - |
| 1778085634 | 19.44° C | 37% | 1011.2 hPa | 0 mm | - | - | - |
| 1778085333 | 19.44° C | 37% | 1011.2 hPa | 0 mm | - | - | - |
| 1778085032 | 20° C | 37% | 1011.2 hPa | 0 mm | - | - | - |
| 1778084733 | 20° C | 38% | 1011.1 hPa | 0 mm | - | - | - |
| 1778084433 | 19.44° C | 38% | 1011.1 hPa | 0 mm | - | - | - |
| 1778084133 | 20° C | 40% | 1011.2 hPa | 0 mm | - | - | - |
| 1778083832 | 20° C | 44% | 1011.1 hPa | 0 mm | - | - | - |
| 1778083532 | 20° C | 45% | 1011.1 hPa | 0 mm | - | - | - |
| 1778083232 | 20° C | 42% | 1011.1 hPa | 0 mm | - | - | - |
| 1778082932 | 20° C | 41% | 1011.1 hPa | 0 mm | - | - | - |
| 1778082632 | 20° C | 40% | 1011.1 hPa | 0 mm | - | - | - |
| 1778082332 | 20° C | 41% | 1011 hPa | 0 mm | - | - | - |
| 1778082032 | 19.44° C | 44% | 1011 hPa | 0 mm | - | - | - |
* Rain latest hour (hover to see other rain measurements)
** Current wind speed in m/s (hover to see current wind gust speed)